Weather in Solginskiy

Russia / Arkhangel'skaya Oblast'     61°03′04″N   41°20′35″E
temp.,
°C
wind,
m/s
gust,
m/s
humid.,
%
clouds,
%
prec.,
mm/h
press.,
hPa
HPBL,
m
23 september, thu
thu2300:00+3e3119655 0.0 1022379
03:00+4e3992100 0.0 1021393
06:00+5ese3893100 0.0 1021350
09:00+6ese3590100 0.0 1020297
12:00+8ese3585100 0.0 1019455
15:00+9ese358397 0.0 1017613
18:00+7ese3996100 0.0 1016479
21:00+7ese4119699 0.1 1014557
24 september, fri
fri2400:00+8ese41193100 0.0 1012627
03:00+8ese41097100 0.0 1011654
06:00+8ese41196100 0.0 1009665
09:00+8se41097100 2.9 1008712
12:00+8sse51092100 1.2 1009733
15:00+9se4109297 1.3 1009717
18:00+8se4109459 0.1 1009580
21:00+8se41094100 0.3 1009619
25 september, sat
sat2500:00+8se3995100 0.1 1010361
03:00+7se259474 0.3 1008330
06:00+7se3996100 0.2 1010301
09:00+9se4119074 0.3 1010480
12:00+12sse4871100 0.5 10091106
15:00+11sse3775100 0.8 1010695
18:00+9se2889100 0.2 1010241
21:00+8se3897100 0.3 1010322
26 september, sun
sun2600:00+7se2697100 0.1 1010352
03:00+7ese1496100 0.1 1010212
06:00+7e1397100 0.0 1011114
09:00+8ene1295100 0.0 1012207
12:00+8ene2396100 0.3 1014259
15:00+7ene2497100 1.0 1016256
18:00+7ne2498100 0.0 1019233
21:00+7ne2697100 0.1 1021247
27 september, mon
mon2700:00+7ne2798100 0.1 1023323
03:00+7ene3798100 0.1 1026388
06:00+7ene3798100 0.0 1028404
09:00+7ene3795100 0.0 1030507
12:00+9ene3584100 0.1 1032689
15:00+8ene2485100 0.1 1033718
18:00+7e2690100 0.1 1035390
21:00+7ese2583100 0.1 1036181